OE-11073 Weather Reports


time (UTC)temp
F
wind
direction
speed
knots
gust
knots
rain 1hr
in
rain 24hr
in
rain mn
in
humidity
%
barometer
mb
20260903072510 62 115 0.9 2.6 0.00 0.00 0.00 79
20260903071124 62 135 0.9 2.6 0.00 0.00 0.00 78
20260903070511 60 87 0.9 1.7 0.00 0.00 0.00 79
20260903065511 59 14 1.7 2.6 0.00 0.00 0.00 80
20260903064123 59 341 0.9 2.6 0.00 0.00 0.00 81
20260903063510 58 198 0.9 1.7 0.00 0.00 0.00 82
20260903062511 57 152 1.7 2.6 0.00 0.00 0.00 89
20260903061124 56 177 0.9 1.7 0.00 0.00 0.00 89
20260903060511 55 199 1.7 1.7 0.00 0.00 0.00 90
20260903055510 55 141 0.9 1.7 0.00 0.00 0.00 90
20260903054123 55 258 0.9 2.6 0.00 0.00 0.00 89
20260903053511 55 283 2.6 4.3 0.00 0.00 0.00 89
20260903052511 55 272 1.7 3.5 0.00 0.00 0.00 89
20260903051124 55 292 2.6 4.3 0.00 0.00 0.00 91
20260903050510 55 263 1.7 3.5 0.00 0.00 0.00 91
20260903045511 55 242 0.9 2.6 0.00 0.00 0.00 90
20260903044123 55 298 0.9 1.7 0.00 0.00 0.00 91
20260903043510 55 63 0.0 1.7 0.00 0.00 0.00 90
20260903042511 55 122 0.9 1.7 0.00 0.00 0.00 90
20260903041123 55 171 0.9 2.6 0.00 0.00 0.00 90
20260903040511 55 173 0.9 2.6 0.00 0.00 0.00 90
20260903035511 57 279 1.7 3.5 0.00 0.00 0.00 84
20260903034510 57 297 3.5 6.1 0.00 0.00 0.00 84
20260903033511 57 270 3.5 6.1 0.00 0.00 0.00 84
20260903032511 57 269 2.6 5.2 0.00 0.00 0.00 85
20260903031124 56 297 3.5 5.2 0.00 0.00 0.00 87
20260903030511 56 273 1.7 4.3 0.00 0.00 0.00 84
20260903025511 56 269 1.7 5.2 0.00 0.00 0.00 84
20260903024511 57 265 1.7 4.3 0.00 0.00 0.00 85
20260903023511 57 288 2.6 4.3 0.00 0.00 0.00 86
20260903022511 56 298 2.6 4.3 0.00 0.00 0.00 88
20260903021123 57 250 2.6 4.3 0.00 0.00 0.00 85
20260903020511 57 246 2.6 4.3 0.00 0.00 0.00 87
20260903015511 57 287 0.9 2.6 0.00 0.00 0.00 89
20260903014123 58 257 1.7 1.7 0.00 0.00 0.00 85
20260903013510 57 222 1.7 2.6 0.00 0.00 0.00 88
20260903012510 58 270 0.0 1.7 0.00 0.00 0.00 88
20260903011124 58 103 0.0 0.9 0.00 0.00 0.00 87
20260903010511 58 259 0.0 2.6 0.00 0.00 0.00 87
20260903005511 59 360 0.0 1.7 0.00 0.00 0.00 82
20260903004124 58 225 0.9 3.5 0.00 0.00 0.00 86
20260903003511 59 229 1.7 3.5 0.00 0.00 0.00 81
20260903002511 60 284 0.9 2.6 0.00 0.00 0.00 82
20260903001523 60 290 1.7 5.2 0.00 0.00 0.00 82
20260903000510 60 237 1.7 3.5 0.00 0.00 0.00 81
20260902235510 60 55 0.0 2.6 0.00 0.00 0.00 81
20260902234123 60 223 2.6 4.3 0.00 0.00 0.00 81
20260902233510 60 312 0.9 2.6 0.00 0.00 0.00 79
20260902232510 60 186 0.0 3.5 0.00 0.00 0.00 82
20260902231511 60 286 2.6 6.1 0.00 0.00 0.00 80
20260902230510 62 261 4.3 7.0 0.00 0.00 0.00 76
20260902225511 62 257 5.2 6.1 0.00 0.00 0.00 75
20260902223511 62 277 1.7 6.1 0.00 0.00 0.00 76
20260902222511 62 269 3.5 7.0 0.00 0.00 0.00 74
20260902221124 63 278 2.6 7.0 0.00 0.00 0.00 72
20260902220510 63 266 4.3 7.8 0.00 0.00 0.00 72
20260902215510 64 272 3.5 9.6 0.00 0.00 0.00 71
20260902214124 64 272 3.5 9.6 0.00 0.00 0.00 69
20260902213510 64 254 4.3 10.4 0.00 0.00 0.00 69
20260902211124 65 265 6.1 11.3 0.00 0.00 0.00 68
20260902210511 64 244 3.5 8.7 0.00 0.00 0.00 71
20260902205511 61 210 1.7 7.8 0.00 0.00 0.00 80
20260902204125 62 230 0.0 2.6 0.00 0.00 0.00 76
20260902203510 62 202 2.6 7.8 0.00 0.00 0.00 79
20260902202511 62 221 1.7 3.5 0.00 0.00 0.00 79
20260902201124 63 208 0.9 1.7 0.00 0.00 0.00 73
20260902200511 63 79 1.7 2.6 0.00 0.00 0.00 76
20260902195511 64 188 1.7 4.3 0.00 0.00 0.00 73
20260902194124 64 190 1.7 3.5 0.00 0.00 0.00 71
20260902193511 64 267 3.5 8.7 0.00 0.00 0.00 71
20260902192510 65 290 3.5 7.8 0.00 0.00 0.00 68
20260902191124 67 262 4.3 7.8 0.00 0.00 0.00 60
20260902190510 67 255 4.3 7.8 0.00 0.00 0.00 62
20260902185511 67 241 5.2 9.6 0.00 0.00 0.00 61
20260902184124 68 228 7.0 9.6 0.00 0.00 0.00 59
20260902183511 69 229 7.0 9.6 0.00 0.00 0.00 55
20260902182511 70 231 7.8 11.3 0.00 0.00 0.00 54
20260902181124 69 238 7.0 11.3 0.00 0.00 0.00 58
20260902180511 68 237 7.0 10.4 0.00 0.00 0.00 60
20260902175511 69 242 7.0 12.2 0.00 0.00 0.00 61
20260902174124 68 257 5.2 9.6 0.00 0.00 0.00 65
20260902173510 71 230 7.8 11.3 0.00 0.00 0.00 55
20260902172511 71 231 7.8 11.3 0.00 0.00 0.00 56
20260902171124 71 237 7.0 10.4 0.00 0.00 0.00 55
20260902170511 72 224 7.8 10.4 0.00 0.00 0.00 53
20260902165511 71 230 7.8 11.3 0.00 0.00 0.00 58
20260902164124 72 231 8.7 13.0 0.00 0.00 0.00 53
20260902163511 72 229 7.0 11.3 0.00 0.00 0.00 56
20260902162511 73 237 7.0 10.4 0.00 0.00 0.00 56
20260902161124 75 232 6.1 11.3 0.00 0.00 0.00 45
20260902160510 75 224 7.8 12.2 0.00 0.00 0.00 47
20260902155511 75 216 8.7 12.2 0.00 0.00 0.00 45
20260902154124 76 237 6.1 11.3 0.00 0.00 0.00 46
20260902153511 76 236 6.1 9.6 0.00 0.00 0.00 44
20260902152510 77 234 5.2 9.6 0.00 0.00 0.00 43
20260902151124 78 299 2.6 10.4 0.00 0.00 0.00 42
20260902150511 77 288 6.1 13.9 0.00 0.00 0.00 39
20260902145511 77 293 5.2 13.9 0.00 0.00 0.00 39
20260902144124 77 280 5.2 13.9 0.00 0.00 0.00 42
20260902143510 77 259 7.8 14.8 0.00 0.00 0.00 39
20260902142511 78 126 2.6 9.6 0.00 0.00 0.00 44
20260902141124 76 102 2.6 4.3 0.00 0.00 0.00 44
20260902140511 76 115 2.6 5.2 0.00 0.00 0.00 51
20260902135511 76 97 3.5 6.1 0.00 0.00 0.00 51
20260902134123 75 100 3.5 5.2 0.00 0.00 0.00 49
20260902133511 75 100 2.6 5.2 0.00 0.00 0.00 46
20260902132511 76 97 2.6 5.2 0.00 0.00 0.00 49
20260902131124 75 107 5.2 7.0 0.00 0.00 0.00 48
20260902130511 75 101 4.3 7.0 0.00 0.00 0.00 47
20260902125511 75 104 3.5 7.0 0.00 0.00 0.00 44
20260902124123 74 110 5.2 7.8 0.00 0.00 0.00 50
20260902123511 74 102 3.5 6.1 0.00 0.00 0.00 50
20260902122511 73 79 2.6 5.2 0.00 0.00 0.00 50
20260902121124 73 113 4.3 7.0 0.00 0.00 0.00 50
20260902120510 74 99 3.5 5.2 0.00 0.00 0.00 48
20260902115510 73 97 3.5 6.1 0.00 0.00 0.00 49
20260902114124 73 110 4.3 7.8 0.00 0.00 0.00 50
20260902113511 73 91 5.2 7.8 0.00 0.00 0.00 50
20260902112511 72 80 4.3 8.7 0.00 0.00 0.00 50
20260902111124 72 108 5.2 7.8 0.00 0.00 0.00 52
20260902110511 72 113 5.2 7.8 0.00 0.00 0.00 57
20260902105510 71 91 4.3 7.8 0.00 0.00 0.00 53
20260902104124 71 81 4.3 7.8 0.00 0.00 0.00 56
20260902103511 70 74 4.3 7.8 0.00 0.00 0.00 58
20260902102510 70 87 4.3 7.8 0.00 0.00 0.00 62
20260902101124 69 91 5.2 7.8 0.00 0.00 0.00 60
20260902100511 69 81 3.5 6.1 0.00 0.00 0.00 60
20260902095511 69 86 1.7 5.2 0.00 0.00 0.00 59
20260902094124 69 92 0.9 3.5 0.00 0.00 0.00 61
20260902093511 67 97 2.6 5.2 0.00 0.00 0.00 64
20260902092510 66 108 2.6 4.3 0.00 0.00 0.00 64
20260902091123 66 119 2.6 4.3 0.00 0.00 0.00 63
20260902090511 66 137 2.6 5.2 0.00 0.00 0.00 69
20260902084123 65 131 0.9 3.5 0.00 0.00 0.00 68
20260902083511 64 149 2.6 4.3 0.00 0.00 0.00 68
20260902082511 64 134 2.6 4.3 0.00 0.00 0.00 71
20260902081123 64 133 0.9 2.6 0.00 0.00 0.00 70
20260902080511 63 145 1.7 3.5 0.00 0.00 0.00 72
20260902075511 62 189 1.7 3.5 0.00 0.00 0.00 75
20260902074124 61 195 2.6 4.3 0.00 0.00 0.00 73